CGBYQ TLPC-MBGT

Flight info

Callsign CGBYQ
Flight time 2h 55m
Altitude 24000
Route FOF UA555 DUNTA/N0274F260 UA555 ILURI Y185 ACONY Y308 ANTOX R507 GTK
Aircraft PC12/L-SDFGRWY/S

Departure

Time 2026-05-04 23:52
Airport George F. L. Charles Airport (TLPC)

Arrival

Time 2026-05-05 02:47
Airport JAGS McCartney International Airport (MBGT)
Time Latitude Longitude Altitude Speed Heading
2026-05-04 23:33 14.02025 -60.99559 24 ft 0 kts 148°
2026-05-04 23:48 14.02007 -60.99560 24 ft 7 kts 212°
2026-05-04 23:48 14.01964 -60.99604 25 ft 10 kts 224°
2026-05-04 23:49 14.01913 -60.99655 25 ft 10 kts 234°
2026-05-04 23:49 14.01887 -60.99725 27 ft 11 kts 254°
2026-05-04 23:49 14.01867 -60.99804 28 ft 12 kts 255°
2026-05-04 23:49 14.01843 -60.99893 28 ft 14 kts 252°
2026-05-04 23:50 14.01808 -60.99994 27 ft 13 kts 246°
2026-05-04 23:50 14.01798 -61.00068 28 ft 9 kts
2026-05-04 23:50 14.01813 -61.00021 27 ft 0 kts 68°
2026-05-04 23:51 14.01815 -61.00017 27 ft 8 kts 68°
2026-05-04 23:51 14.01881 -60.99786 27 ft 60 kts 75°
2026-05-04 23:51 14.02025 -60.99221 34 ft 98 kts 72°
2026-05-04 23:51 14.02228 -60.98545 322 ft 100 kts 72°
2026-05-04 23:52 14.02686 -60.97983 591 ft 115 kts 26°
2026-05-04 23:52 14.03528 -60.97960 892 ft 132 kts 351°
2026-05-04 23:52 14.04423 -60.98247 1332 ft 135 kts 350°
2026-05-04 23:52 14.05339 -60.98488 1815 ft 138 kts 336°
2026-05-04 23:53 14.06195 -60.98958 2309 ft 141 kts 333°
2026-05-04 23:53 14.07041 -60.99455 2804 ft 143 kts 334°
2026-05-04 23:53 14.07960 -60.99761 3305 ft 138 kts
2026-05-04 23:53 14.08923 -60.99733 3828 ft 140 kts
2026-05-04 23:54 14.09970 -60.99735 4150 ft 162 kts
2026-05-04 23:54 14.11160 -60.99778 4435 ft 180 kts
2026-05-04 23:54 14.12460 -60.99845 4717 ft 194 kts
2026-05-04 23:54 14.13841 -60.99920 4995 ft 203 kts
2026-05-04 23:55 14.15282 -60.99994 5274 ft 210 kts
2026-05-04 23:55 14.16763 -61.00071 5553 ft 215 kts
2026-05-04 23:55 14.19823 -61.00228 6096 ft 222 kts
2026-05-04 23:56 14.21375 -61.00310 6377 ft 224 kts
2026-05-04 23:56 14.22942 -61.00393 6653 ft 225 kts
2026-05-04 23:56 14.24512 -61.00475 6928 ft 227 kts
2026-05-04 23:56 14.26092 -61.00557 7204 ft 228 kts
2026-05-04 23:57 14.27678 -61.00640 7476 ft 229 kts
2026-05-04 23:57 14.29268 -61.00723 7798 ft 228 kts
2026-05-04 23:57 14.30856 -61.00806 8097 ft 229 kts
2026-05-04 23:57 14.32449 -61.00890 8397 ft 230 kts
2026-05-04 23:58 14.34047 -61.00973 8697 ft 230 kts
2026-05-04 23:58 14.35649 -61.01057 8997 ft 230 kts
2026-05-04 23:58 14.37252 -61.01140 9297 ft 231 kts
2026-05-04 23:58 14.38838 -61.01223 9594 ft 231 kts
2026-05-04 23:59 14.40445 -61.01307 9894 ft 231 kts
2026-05-04 23:59 14.42052 -61.01391 10194 ft 231 kts
2026-05-04 23:59 14.43660 -61.01475 10494 ft 231 kts
2026-05-04 23:59 14.45269 -61.01559 10795 ft 232 kts
2026-05-05 00:00 14.46880 -61.01644 11095 ft 232 kts
2026-05-05 00:00 14.47424 -61.01673 11190 ft 232 kts
2026-05-05 00:00 14.50103 -61.01811 11693 ft 232 kts
2026-05-05 00:00 14.51723 -61.01895 11996 ft 233 kts
2026-05-05 00:01 14.53340 -61.01979 12294 ft 233 kts
2026-05-05 00:01 14.54961 -61.02064 12595 ft 233 kts 360°
2026-05-05 00:01 14.56580 -61.02149 12900 ft 233 kts 360°
2026-05-05 00:01 14.58184 -61.02370 13195 ft 234 kts 345°
2026-05-05 00:02 14.59648 -61.03111 13498 ft 237 kts 326°
2026-05-05 00:02 14.60834 -61.04286 13803 ft 237 kts 313°
2026-05-05 00:02 14.61937 -61.05553 14104 ft 237 kts 314°
2026-05-05 00:02 14.63044 -61.06815 14403 ft 237 kts 314°
2026-05-05 00:03 14.64153 -61.08078 14703 ft 237 kts 314°
2026-05-05 00:03 14.65258 -61.09340 15007 ft 237 kts 314°
2026-05-05 00:03 14.66364 -61.10603 15312 ft 237 kts 314°
2026-05-05 00:03 14.66960 -61.11282 14658 ft 30 kts 326°
2026-05-05 00:04 14.68097 -61.11820 13663 ft 211 kts 340°
2026-05-05 00:04 14.69307 -61.12559 14321 ft 203 kts 320°
2026-05-05 00:04 14.70171 -61.13726 14720 ft 208 kts 299°
2026-05-05 00:04 14.70608 -61.15143 15170 ft 209 kts 278°
2026-05-05 00:05 14.70619 -61.16621 15768 ft 194 kts 277°
2026-05-05 00:05 14.71012 -61.17896 16270 ft 195 kts 303°
2026-05-05 00:05 14.72030 -61.18854 16468 ft 202 kts 339°
2026-05-05 00:05 14.73324 -61.19406 16875 ft 201 kts 337°
2026-05-05 00:06 14.74553 -61.20106 17276 ft 202 kts 326°
2026-05-05 00:06 14.75595 -61.21082 17672 ft 202 kts 314°
2026-05-05 00:06 14.76529 -61.22188 17983 ft 206 kts 313°
2026-05-05 00:06 14.77481 -61.23313 18285 ft 209 kts 314°
2026-05-05 00:07 14.78464 -61.24438 18586 ft 212 kts 314°
2026-05-05 00:07 14.79460 -61.25571 18886 ft 214 kts 314°
2026-05-05 00:07 14.80465 -61.26719 19188 ft 216 kts 314°
2026-05-05 00:07 14.81474 -61.27874 19488 ft 218 kts 314°
2026-05-05 00:08 14.82147 -61.28646 19687 ft 218 kts 314°
2026-05-05 00:08 14.83168 -61.29814 19986 ft 220 kts 314°
2026-05-05 00:08 14.84201 -61.30995 20286 ft 222 kts 314°
2026-05-05 00:08 14.85238 -61.32182 20588 ft 223 kts 314°
2026-05-05 00:09 14.86281 -61.33377 20888 ft 224 kts 314°
2026-05-05 00:09 14.87329 -61.34577 21188 ft 226 kts 314°
2026-05-05 00:09 14.88382 -61.35783 21486 ft 227 kts 314°
2026-05-05 00:09 14.89440 -61.36995 21788 ft 227 kts 314°
2026-05-05 00:10 14.90502 -61.38211 22089 ft 228 kts 314°
2026-05-05 00:10 14.91565 -61.39430 22387 ft 229 kts 314°
2026-05-05 00:10 14.92633 -61.40654 22688 ft 230 kts 314°
2026-05-05 00:10 14.93704 -61.41882 22988 ft 230 kts 315°
2026-05-05 00:11 14.94780 -61.43115 23288 ft 231 kts 315°
2026-05-05 00:11 14.95856 -61.44350 23588 ft 232 kts 315°
2026-05-05 00:11 14.96938 -61.45590 23888 ft 232 kts 315°
2026-05-05 00:11 14.98036 -61.46847 24015 ft 242 kts 315°
2026-05-05 00:12 14.99191 -61.48170 24019 ft 254 kts 315°
2026-05-05 00:12 15.00396 -61.49551 24032 ft 263 kts 315°
2026-05-05 00:12 15.01636 -61.50976 24035 ft 270 kts 314°
2026-05-05 00:12 15.02905 -61.52433 24037 ft 275 kts 314°
2026-05-05 00:13 15.04197 -61.53916 24038 ft 279 kts 314°
2026-05-05 00:13 15.05500 -61.55414 24039 ft 282 kts 314°
2026-05-05 00:13 15.06820 -61.56929 24040 ft 284 kts 314°
2026-05-05 00:13 15.08147 -61.58454 24040 ft 286 kts 314°
2026-05-05 00:14 15.09480 -61.59986 24041 ft 287 kts 314°
2026-05-05 00:14 15.10819 -61.61525 24040 ft 289 kts 315°
2026-05-05 00:14 15.12150 -61.63055 24040 ft 290 kts 315°
2026-05-05 00:14 15.13508 -61.64617 24040 ft 292 kts 315°
2026-05-05 00:15 15.14865 -61.66178 24041 ft 293 kts 315°
2026-05-05 00:15 15.16230 -61.67748 24041 ft 293 kts 315°
2026-05-05 00:15 15.17597 -61.69321 24041 ft 294 kts 315°
2026-05-05 00:15 15.18966 -61.70895 24041 ft 295 kts 315°
2026-05-05 00:16 15.20340 -61.72477 24042 ft 295 kts 315°
2026-05-05 00:16 15.21713 -61.74058 24042 ft 295 kts 315°
2026-05-05 00:16 15.23088 -61.75642 24042 ft 295 kts 315°
2026-05-05 00:16 15.24463 -61.77225 24042 ft 295 kts 315°
2026-05-05 00:17 15.25834 -61.78805 24042 ft 296 kts 315°
2026-05-05 00:17 15.27207 -61.80387 24042 ft 296 kts 315°
2026-05-05 00:17 15.28582 -61.81972 24042 ft 296 kts 314°
2026-05-05 00:17 15.29958 -61.83558 24042 ft 296 kts 314°
2026-05-05 00:18 15.31315 -61.85123 24042 ft 296 kts 314°
2026-05-05 00:18 15.32696 -61.86716 24042 ft 296 kts 314°
2026-05-05 00:18 15.34074 -61.88305 24042 ft 296 kts 314°
2026-05-05 00:18 15.35453 -61.89897 24042 ft 297 kts 315°
2026-05-05 00:19 15.36830 -61.91485 24042 ft 297 kts 315°
2026-05-05 00:19 15.38211 -61.93079 24042 ft 297 kts 315°
2026-05-05 00:19 15.39587 -61.94668 24042 ft 297 kts 315°
2026-05-05 00:19 15.40968 -61.96262 24042 ft 297 kts 315°
2026-05-05 00:20 15.42349 -61.97857 24042 ft 297 kts 315°
2026-05-05 00:20 15.43726 -61.99447 24042 ft 297 kts 315°
2026-05-05 00:20 15.45088 -62.01021 24042 ft 297 kts 314°
2026-05-05 00:20 15.46464 -62.02613 24042 ft 297 kts 314°
2026-05-05 00:21 15.47846 -62.04209 24042 ft 297 kts 314°
2026-05-05 00:21 15.49225 -62.05804 24042 ft 297 kts 314°
2026-05-05 00:21 15.50603 -62.07398 24042 ft 297 kts 314°
2026-05-05 00:21 15.51980 -62.08991 24042 ft 297 kts 314°
2026-05-05 00:22 15.53356 -62.10583 24042 ft 297 kts 314°
2026-05-05 00:22 15.54736 -62.12179 24042 ft 297 kts 314°
2026-05-05 00:22 15.56114 -62.13773 24042 ft 297 kts 314°
2026-05-05 00:22 15.57494 -62.15371 24042 ft 297 kts 314°
2026-05-05 00:23 15.58873 -62.16969 24042 ft 297 kts 314°
2026-05-05 00:23 15.60250 -62.18564 24042 ft 297 kts 314°
2026-05-05 00:23 15.61627 -62.20158 24042 ft 297 kts 314°
2026-05-05 00:23 15.63008 -62.21760 24048 ft 297 kts 314°
2026-05-05 00:24 15.64381 -62.23353 24047 ft 297 kts 314°
2026-05-05 00:24 15.65758 -62.24951 24047 ft 297 kts 314°
2026-05-05 00:24 15.67135 -62.26548 24047 ft 297 kts 314°
2026-05-05 00:24 15.68513 -62.28147 24047 ft 297 kts 314°
2026-05-05 00:25 15.69889 -62.29744 24047 ft 297 kts 314°
2026-05-05 00:25 15.71248 -62.31322 24048 ft 297 kts 314°
2026-05-05 00:25 15.72626 -62.32923 24048 ft 297 kts 314°
2026-05-05 00:25 15.74005 -62.34525 24048 ft 297 kts 314°
2026-05-05 00:26 15.75381 -62.36123 24048 ft 297 kts 314°
2026-05-05 00:26 15.76749 -62.37713 24046 ft 293 kts 314°
2026-05-05 00:26 15.78096 -62.39279 24045 ft 289 kts 314°
2026-05-05 00:26 15.79428 -62.40827 24046 ft 286 kts 314°
2026-05-05 00:27 15.80748 -62.42362 24045 ft 284 kts 314°
2026-05-05 00:27 15.82057 -62.43885 24046 ft 282 kts 314°
2026-05-05 00:27 15.83358 -62.45399 24049 ft 280 kts 314°
2026-05-05 00:27 15.84651 -62.46902 24057 ft 279 kts 314°
2026-05-05 00:28 15.85941 -62.48403 24056 ft 278 kts 314°
2026-05-05 00:28 15.87226 -62.49898 24056 ft 277 kts 314°
2026-05-05 00:28 15.88509 -62.51392 24056 ft 276 kts 314°
2026-05-05 00:28 15.89790 -62.52884 24056 ft 276 kts 314°
2026-05-05 00:29 15.91067 -62.54372 24055 ft 276 kts 314°
2026-05-05 00:29 15.92343 -62.55858 24054 ft 275 kts 314°
2026-05-05 00:29 15.93616 -62.57341 24055 ft 275 kts 314°
2026-05-05 00:29 15.94873 -62.58807 24055 ft 275 kts 314°
2026-05-05 00:30 15.96159 -62.60306 24055 ft 275 kts 314°
2026-05-05 00:30 15.97431 -62.61788 24054 ft 275 kts 314°
2026-05-05 00:30 15.98685 -62.63252 24055 ft 274 kts 314°
2026-05-05 00:30 15.99957 -62.64735 24054 ft 274 kts 314°
2026-05-05 00:31 16.01224 -62.66213 24055 ft 274 kts 314°
2026-05-05 00:31 16.02493 -62.67694 24055 ft 274 kts 314°
2026-05-05 00:31 16.03764 -62.69177 24055 ft 274 kts 314°
2026-05-05 00:31 16.05031 -62.70655 24055 ft 274 kts 314°
2026-05-05 00:32 16.06302 -62.72140 24055 ft 274 kts 314°
2026-05-05 00:32 16.07570 -62.73621 24054 ft 274 kts 314°
2026-05-05 00:32 16.08835 -62.75099 24054 ft 274 kts 314°
2026-05-05 00:32 16.10105 -62.76583 24055 ft 274 kts 314°
2026-05-05 00:33 16.11373 -62.78064 24055 ft 274 kts 314°
2026-05-05 00:33 16.12642 -62.79548 24055 ft 274 kts 314°
2026-05-05 00:33 16.13911 -62.81032 24054 ft 274 kts 314°
2026-05-05 00:33 16.15177 -62.82512 24054 ft 274 kts 314°
2026-05-05 00:34 16.16449 -62.83999 24055 ft 274 kts 314°
2026-05-05 00:34 16.17702 -62.85465 24055 ft 274 kts 314°
2026-05-05 00:34 16.18970 -62.86949 24055 ft 275 kts 314°
2026-05-05 00:34 16.20243 -62.88438 24055 ft 276 kts 314°
2026-05-05 00:35 16.21520 -62.89934 24055 ft 276 kts 313°
2026-05-05 00:35 16.22797 -62.91429 24056 ft 277 kts 313°
2026-05-05 00:35 16.24074 -62.92924 24056 ft 277 kts 313°
2026-05-05 00:35 16.25353 -62.94422 24056 ft 277 kts 313°
2026-05-05 00:36 16.26632 -62.95920 24056 ft 277 kts 313°
2026-05-05 00:36 16.27910 -62.97419 24055 ft 277 kts 313°
2026-05-05 00:36 16.29187 -62.98915 24056 ft 276 kts 313°
2026-05-05 00:36 16.30441 -63.00426 24056 ft 276 kts 309°
2026-05-05 00:37 16.31635 -63.01993 24056 ft 276 kts 310°
2026-05-05 00:37 16.32846 -63.03543 24056 ft 276 kts 310°
2026-05-05 00:37 16.34056 -63.05094 24056 ft 276 kts 310°
2026-05-05 00:37 16.35263 -63.06655 24056 ft 276 kts 310°
2026-05-05 00:38 16.36465 -63.08212 24056 ft 276 kts 310°
2026-05-05 00:38 16.37655 -63.09750 24078 ft 275 kts 310°
2026-05-05 00:38 16.38872 -63.11321 24074 ft 275 kts 310°
2026-05-05 00:38 16.40076 -63.12876 24079 ft 276 kts 310°
2026-05-05 00:39 16.41276 -63.14430 24074 ft 276 kts 310°
2026-05-05 00:39 16.42464 -63.15967 24074 ft 276 kts 310°
2026-05-05 00:39 16.43666 -63.17520 24080 ft 275 kts 310°
2026-05-05 00:39 16.44868 -63.19076 24076 ft 276 kts 310°
2026-05-05 00:40 16.46074 -63.20638 24080 ft 277 kts 310°
2026-05-05 00:40 16.47282 -63.22201 24075 ft 277 kts 310°
2026-05-05 00:40 16.48491 -63.23767 24075 ft 278 kts 310°
2026-05-05 00:40 16.49702 -63.25335 24078 ft 278 kts 310°
2026-05-05 00:41 16.50914 -63.26904 24075 ft 278 kts 310°
2026-05-05 00:41 16.52123 -63.28472 24079 ft 277 kts 310°
2026-05-05 00:41 16.53333 -63.30039 24083 ft 277 kts 310°
2026-05-05 00:41 16.54541 -63.31606 24080 ft 277 kts 310°
2026-05-05 00:42 16.55749 -63.33172 24075 ft 277 kts 310°
2026-05-05 00:42 16.56956 -63.34737 24080 ft 277 kts 310°
2026-05-05 00:42 16.58160 -63.36299 24075 ft 276 kts 310°
2026-05-05 00:42 16.59364 -63.37861 24080 ft 276 kts 310°
2026-05-05 00:43 16.60567 -63.39424 24075 ft 276 kts 310°
2026-05-05 00:43 16.61768 -63.40982 24075 ft 276 kts 310°
2026-05-05 00:43 16.62971 -63.42543 24080 ft 276 kts 310°
2026-05-05 00:43 16.64170 -63.44101 24083 ft 276 kts 310°
2026-05-05 00:44 16.65371 -63.45661 24077 ft 275 kts 310°
2026-05-05 00:44 16.66570 -63.47219 24075 ft 275 kts 310°
2026-05-05 00:44 16.67770 -63.48779 24083 ft 275 kts 310°
2026-05-05 00:44 16.68968 -63.50336 24079 ft 275 kts 310°
2026-05-05 00:45 16.70149 -63.51871 24074 ft 275 kts 310°
2026-05-05 00:45 16.71351 -63.53435 24075 ft 275 kts 310°
2026-05-05 00:45 16.72551 -63.54995 24083 ft 276 kts 309°
2026-05-05 00:45 16.73755 -63.56562 24078 ft 277 kts 309°
2026-05-05 00:46 16.74961 -63.58131 24079 ft 277 kts 309°
2026-05-05 00:46 16.76168 -63.59701 24080 ft 277 kts 309°
2026-05-05 00:46 16.77373 -63.61271 24084 ft 277 kts 309°
2026-05-05 00:46 16.78577 -63.62840 24080 ft 277 kts 309°
2026-05-05 00:47 16.79784 -63.64412 24080 ft 277 kts 309°
2026-05-05 00:47 16.80989 -63.65981 24075 ft 277 kts 309°
2026-05-05 00:47 16.82193 -63.67551 24081 ft 277 kts 309°
2026-05-05 00:47 16.83398 -63.69121 24075 ft 277 kts 309°
2026-05-05 00:48 16.84599 -63.70687 24075 ft 277 kts 309°
2026-05-05 00:48 16.85787 -63.72236 24075 ft 277 kts 309°
2026-05-05 00:48 16.86991 -63.73806 24075 ft 277 kts 309°
2026-05-05 00:48 16.88192 -63.75373 24075 ft 276 kts 309°
2026-05-05 00:49 16.89393 -63.76940 24076 ft 276 kts 309°
2026-05-05 00:49 16.90594 -63.78507 24075 ft 276 kts 309°
2026-05-05 00:49 16.91795 -63.80075 24079 ft 276 kts 309°
2026-05-05 00:49 16.92995 -63.81643 24080 ft 276 kts 309°
2026-05-05 00:50 16.94192 -63.83207 24075 ft 276 kts 309°
2026-05-05 00:50 16.95392 -63.84773 24075 ft 276 kts 309°
2026-05-05 00:50 16.96590 -63.86339 24078 ft 276 kts 309°
2026-05-05 00:50 16.97788 -63.87904 24081 ft 276 kts 309°
2026-05-05 00:51 16.98983 -63.89467 24075 ft 276 kts 309°
2026-05-05 00:51 17.00180 -63.91031 24083 ft 275 kts 309°
2026-05-05 00:51 17.01377 -63.92597 24075 ft 275 kts 309°
2026-05-05 00:51 17.02572 -63.94161 24077 ft 275 kts 309°
2026-05-05 00:52 17.03766 -63.95724 24082 ft 275 kts 309°
2026-05-05 00:52 17.04962 -63.97289 24078 ft 275 kts 309°
2026-05-05 00:52 17.06140 -63.98830 24075 ft 275 kts 309°
2026-05-05 00:52 17.07333 -64.00392 24075 ft 275 kts 309°
2026-05-05 00:53 17.08525 -64.01954 24075 ft 275 kts 309°
2026-05-05 00:53 17.09717 -64.03515 24084 ft 274 kts 309°
2026-05-05 00:53 17.10905 -64.05072 24075 ft 274 kts 309°
2026-05-05 00:53 17.12096 -64.06631 24075 ft 274 kts 309°
2026-05-05 00:54 17.13283 -64.08187 24080 ft 274 kts 309°
2026-05-05 00:54 17.14471 -64.09747 24075 ft 274 kts 309°
2026-05-05 00:54 17.15256 -64.10776 24082 ft 274 kts 309°
2026-05-05 00:54 17.16445 -64.12335 24082 ft 274 kts 309°
2026-05-05 00:55 17.17631 -64.13890 24079 ft 273 kts 308°
2026-05-05 00:55 17.18816 -64.15446 24078 ft 273 kts 308°
2026-05-05 00:55 17.20002 -64.17003 24081 ft 273 kts 308°
2026-05-05 00:55 17.21574 -64.19067 24075 ft 273 kts 308°
2026-05-05 00:56 17.22375 -64.20118 24081 ft 273 kts 308°
2026-05-05 00:56 17.23559 -64.21673 24075 ft 273 kts 308°
2026-05-05 00:56 17.24742 -64.23227 24083 ft 274 kts 308°
2026-05-05 00:56 17.25931 -64.24790 24075 ft 275 kts 308°
2026-05-05 00:57 17.27122 -64.26355 24078 ft 275 kts 308°
2026-05-05 00:57 17.28315 -64.27924 24076 ft 275 kts 308°
2026-05-05 00:57 17.29508 -64.29493 24084 ft 276 kts 308°
2026-05-05 00:57 17.30685 -64.31041 24082 ft 275 kts 308°
2026-05-05 00:58 17.31880 -64.32612 24082 ft 275 kts 308°
2026-05-05 00:58 17.33073 -64.34182 24088 ft 275 kts 308°
2026-05-05 00:58 17.34265 -64.35752 24082 ft 275 kts 308°
2026-05-05 00:58 17.35458 -64.37322 24085 ft 275 kts 308°
2026-05-05 00:59 17.36650 -64.38892 24088 ft 275 kts 308°
2026-05-05 00:59 17.37841 -64.40460 24089 ft 275 kts 308°
2026-05-05 00:59 17.39030 -64.42026 24085 ft 275 kts 308°
2026-05-05 00:59 17.40220 -64.43594 24085 ft 275 kts 308°
2026-05-05 01:00 17.41408 -64.45160 24083 ft 275 kts 308°
2026-05-05 01:00 17.42582 -64.46707 24083 ft 275 kts 308°
2026-05-05 01:00 17.43769 -64.48274 24089 ft 275 kts 308°
2026-05-05 01:00 17.44957 -64.49840 24086 ft 275 kts 308°
2026-05-05 01:01 17.46145 -64.51407 24084 ft 274 kts 308°
2026-05-05 01:01 17.47336 -64.52979 24087 ft 274 kts 308°
2026-05-05 01:01 17.48520 -64.54542 24085 ft 274 kts 308°
2026-05-05 01:01 17.49707 -64.56110 24081 ft 274 kts 308°
2026-05-05 01:02 17.50892 -64.57674 24085 ft 274 kts 308°
2026-05-05 01:02 17.52077 -64.59239 24084 ft 274 kts 308°
2026-05-05 01:02 17.53262 -64.60805 24081 ft 274 kts 308°
2026-05-05 01:02 17.54445 -64.62369 24086 ft 274 kts 308°
2026-05-05 01:03 17.55629 -64.63933 24081 ft 274 kts 308°
2026-05-05 01:03 17.56811 -64.65495 24081 ft 274 kts 308°
2026-05-05 01:03 17.57980 -64.67040 24087 ft 274 kts 308°
2026-05-05 01:03 17.59175 -64.68621 24087 ft 273 kts 308°
2026-05-05 01:04 17.60341 -64.70165 24086 ft 273 kts 308°
2026-05-05 01:04 17.62703 -64.73291 24086 ft 274 kts 308°
2026-05-05 01:04 17.63884 -64.74854 24082 ft 273 kts 308°
2026-05-05 01:05 17.65064 -64.76416 24082 ft 273 kts 308°
2026-05-05 01:05 17.66245 -64.77981 24083 ft 274 kts 308°
2026-05-05 01:05 17.67428 -64.79549 24090 ft 275 kts 308°
2026-05-05 01:05 17.68618 -64.81126 24082 ft 275 kts 308°
2026-05-05 01:06 17.69804 -64.82696 24082 ft 275 kts 308°
2026-05-05 01:06 17.70990 -64.84270 24086 ft 275 kts 308°
2026-05-05 01:06 17.72180 -64.85847 24082 ft 275 kts 308°
2026-05-05 01:06 17.73369 -64.87424 24083 ft 275 kts 308°
2026-05-05 01:07 17.74541 -64.88980 24087 ft 275 kts 308°
2026-05-05 01:07 17.75727 -64.90553 24087 ft 275 kts 308°
2026-05-05 01:07 17.76913 -64.92128 24083 ft 275 kts 308°
2026-05-05 01:07 17.78100 -64.93703 24083 ft 274 kts 308°
2026-05-05 01:08 17.79283 -64.95274 24090 ft 274 kts 308°
2026-05-05 01:08 17.80462 -64.96841 24089 ft 274 kts 308°
2026-05-05 01:08 17.81643 -64.98410 24082 ft 273 kts 308°
2026-05-05 01:08 17.82820 -64.99974 24088 ft 273 kts 308°
2026-05-05 01:09 17.83995 -65.01535 24085 ft 273 kts 308°
2026-05-05 01:09 17.85169 -65.03097 24082 ft 272 kts 308°
2026-05-05 01:09 17.86341 -65.04655 24082 ft 272 kts 308°
2026-05-05 01:09 17.87515 -65.06217 24087 ft 272 kts 308°
2026-05-05 01:10 17.88687 -65.07776 24082 ft 272 kts 308°
2026-05-05 01:10 17.89859 -65.09336 24086 ft 273 kts 308°
2026-05-05 01:10 17.91034 -65.10901 24082 ft 273 kts 308°
2026-05-05 01:10 17.92195 -65.12446 24083 ft 273 kts 308°
2026-05-05 01:11 17.93371 -65.14011 24084 ft 273 kts 308°
2026-05-05 01:11 17.94546 -65.15576 24083 ft 273 kts 308°
2026-05-05 01:11 17.95725 -65.17147 24083 ft 273 kts 308°
2026-05-05 01:11 17.96899 -65.18713 24083 ft 273 kts 308°
2026-05-05 01:12 17.98072 -65.20277 24085 ft 273 kts 308°
2026-05-05 01:12 17.99249 -65.21846 24082 ft 273 kts 308°
2026-05-05 01:12 18.00423 -65.23412 24086 ft 273 kts 308°
2026-05-05 01:12 18.01599 -65.24980 24083 ft 272 kts 307°
2026-05-05 01:13 18.02771 -65.26544 24083 ft 272 kts 307°
2026-05-05 01:13 18.03925 -65.28084 24082 ft 272 kts 307°
2026-05-05 01:13 18.05092 -65.29643 24087 ft 272 kts 307°
2026-05-05 01:13 18.06260 -65.31201 24082 ft 271 kts 307°
2026-05-05 01:14 18.07425 -65.32758 24090 ft 271 kts 307°
2026-05-05 01:14 18.08590 -65.34315 24087 ft 271 kts 307°
2026-05-05 01:14 18.09754 -65.35869 24082 ft 271 kts 307°
2026-05-05 01:14 18.10918 -65.37425 24082 ft 270 kts 307°
2026-05-05 01:15 18.12080 -65.38979 24085 ft 270 kts 307°
2026-05-05 01:15 18.13240 -65.40531 24082 ft 270 kts 307°
2026-05-05 01:15 18.14401 -65.42083 24082 ft 270 kts 307°
2026-05-05 01:15 18.15563 -65.43638 24082 ft 270 kts 307°
2026-05-05 01:16 18.16724 -65.45192 24088 ft 271 kts 307°
2026-05-05 01:16 18.17886 -65.46748 24083 ft 271 kts 307°
2026-05-05 01:16 18.19038 -65.48289 24083 ft 271 kts 307°
2026-05-05 01:16 18.20202 -65.49848 24083 ft 271 kts 307°
2026-05-05 01:17 18.21365 -65.51406 24091 ft 271 kts 307°
2026-05-05 01:17 18.22527 -65.52963 24083 ft 271 kts 307°
2026-05-05 01:17 18.23690 -65.54521 24088 ft 271 kts 307°
2026-05-05 01:17 18.24853 -65.56080 24087 ft 271 kts 307°
2026-05-05 01:18 18.26014 -65.57637 24090 ft 271 kts 307°
2026-05-05 01:18 18.27177 -65.59196 24083 ft 271 kts 307°
2026-05-05 01:18 18.28336 -65.60751 24083 ft 270 kts 307°
2026-05-05 01:18 18.29497 -65.62308 24083 ft 270 kts 307°
2026-05-05 01:19 18.30656 -65.63864 24083 ft 270 kts 307°
2026-05-05 01:19 18.31815 -65.65420 24088 ft 270 kts 307°
2026-05-05 01:19 18.32973 -65.66974 24083 ft 270 kts 307°
2026-05-05 01:19 18.34128 -65.68526 24090 ft 269 kts 307°
2026-05-05 01:20 18.35286 -65.70081 24083 ft 270 kts 307°
2026-05-05 01:20 18.36442 -65.71634 24083 ft 270 kts 307°
2026-05-05 01:20 18.37598 -65.73189 24082 ft 269 kts 307°
2026-05-05 01:20 18.38753 -65.74742 24090 ft 269 kts 307°
2026-05-05 01:21 18.39910 -65.76297 24084 ft 269 kts 307°
2026-05-05 01:21 18.41065 -65.77850 24086 ft 269 kts 307°
2026-05-05 01:21 18.42216 -65.79400 24088 ft 269 kts 307°
2026-05-05 01:21 18.43370 -65.80952 24085 ft 269 kts 307°
2026-05-05 01:22 18.44523 -65.82504 24079 ft 269 kts 307°
2026-05-05 01:22 18.45667 -65.84044 24077 ft 270 kts 307°
2026-05-05 01:22 18.46824 -65.85603 24077 ft 270 kts 307°
2026-05-05 01:22 18.47984 -65.87166 24083 ft 271 kts 307°
2026-05-05 01:23 18.49143 -65.88727 24077 ft 271 kts 307°
2026-05-05 01:23 18.50301 -65.90287 24082 ft 270 kts 307°
2026-05-05 01:23 18.51459 -65.91849 24077 ft 270 kts 307°
2026-05-05 01:23 18.52617 -65.93411 24083 ft 270 kts 307°
2026-05-05 01:24 18.53775 -65.94972 24077 ft 270 kts 307°
2026-05-05 01:24 18.54931 -65.96531 24081 ft 270 kts 307°
2026-05-05 01:24 18.56088 -65.98091 24077 ft 270 kts 307°
2026-05-05 01:24 18.57245 -65.99653 24077 ft 270 kts 307°
2026-05-05 01:25 18.58401 -66.01213 24080 ft 270 kts 307°
2026-05-05 01:25 18.59552 -66.02769 24077 ft 269 kts 307°
2026-05-05 01:25 18.60708 -66.04330 24068 ft 269 kts 307°
2026-05-05 01:25 18.61861 -66.05887 24066 ft 269 kts 307°
2026-05-05 01:26 18.63011 -66.07441 24068 ft 269 kts 307°
2026-05-05 01:26 18.64165 -66.09000 24066 ft 269 kts 307°
2026-05-05 01:26 18.65314 -66.10554 24066 ft 269 kts 307°
2026-05-05 01:26 18.66449 -66.12090 24052 ft 269 kts 307°
2026-05-05 01:27 18.67600 -66.13646 24052 ft 269 kts 307°
2026-05-05 01:27 18.68752 -66.15204 24052 ft 270 kts 307°
2026-05-05 01:27 18.69906 -66.16766 24052 ft 270 kts 307°
2026-05-05 01:27 18.71060 -66.18328 24052 ft 270 kts 307°
2026-05-05 01:28 18.72214 -66.19891 24051 ft 270 kts 307°
2026-05-05 01:28 18.73369 -66.21455 24053 ft 270 kts 307°
2026-05-05 01:28 18.74526 -66.23023 24052 ft 270 kts 307°
2026-05-05 01:28 18.75681 -66.24587 24051 ft 270 kts 307°
2026-05-05 01:29 18.76834 -66.26150 24051 ft 270 kts 307°
2026-05-05 01:29 18.77990 -66.27717 24052 ft 270 kts 307°
2026-05-05 01:29 18.79146 -66.29284 24053 ft 270 kts 307°
2026-05-05 01:29 18.80300 -66.30850 24052 ft 270 kts 307°
2026-05-05 01:30 18.81457 -66.32419 24052 ft 270 kts 307°
2026-05-05 01:30 18.82596 -66.33965 24053 ft 270 kts 307°
2026-05-05 01:30 18.83750 -66.35531 24053 ft 270 kts 307°
2026-05-05 01:30 18.84903 -66.37096 24053 ft 270 kts 306°
2026-05-05 01:31 18.86057 -66.38664 24053 ft 270 kts 306°
2026-05-05 01:31 18.87211 -66.40230 24053 ft 270 kts 306°
2026-05-05 01:31 18.88362 -66.41795 24053 ft 270 kts 306°
2026-05-05 01:31 18.89513 -66.43359 24053 ft 270 kts 306°
2026-05-05 01:32 18.90661 -66.44921 24052 ft 270 kts 306°
2026-05-05 01:32 18.91810 -66.46483 24052 ft 269 kts 306°
2026-05-05 01:32 18.92942 -66.48058 24052 ft 267 kts 302°
2026-05-05 01:32 18.93982 -66.49683 24052 ft 267 kts 302°
2026-05-05 01:33 18.95038 -66.51302 24053 ft 268 kts 303°
2026-05-05 01:33 18.96097 -66.52923 24053 ft 268 kts 303°
2026-05-05 01:33 18.97151 -66.54545 24053 ft 268 kts 302°
2026-05-05 01:33 18.98191 -66.56151 24052 ft 268 kts 303°
2026-05-05 01:34 18.99244 -66.57772 24053 ft 268 kts 303°
2026-05-05 01:34 19.00297 -66.59396 24053 ft 268 kts 303°
2026-05-05 01:34 19.01351 -66.61021 24053 ft 268 kts 302°
2026-05-05 01:34 19.02405 -66.62646 24053 ft 268 kts 302°
2026-05-05 01:35 19.03455 -66.64267 24053 ft 268 kts 302°
2026-05-05 01:35 19.04508 -66.65891 24052 ft 268 kts 302°
2026-05-05 01:35 19.05559 -66.67513 24052 ft 268 kts 302°
2026-05-05 01:35 19.06611 -66.69137 24052 ft 268 kts 302°
2026-05-05 01:36 19.07661 -66.70761 24055 ft 267 kts 302°
2026-05-05 01:36 19.08711 -66.72383 24056 ft 267 kts 302°
2026-05-05 01:36 19.09762 -66.74006 24056 ft 267 kts 302°
2026-05-05 01:36 19.10811 -66.75627 24056 ft 267 kts 302°
2026-05-05 01:37 19.11860 -66.77250 24056 ft 267 kts 302°
2026-05-05 01:37 19.12907 -66.78870 24056 ft 267 kts 302°
2026-05-05 01:37 19.13956 -66.80493 24056 ft 267 kts 302°
2026-05-05 01:37 19.15008 -66.82121 24056 ft 268 kts 302°
2026-05-05 01:38 19.16059 -66.83747 24057 ft 267 kts 302°
2026-05-05 01:38 19.17107 -66.85368 24057 ft 267 kts 302°
2026-05-05 01:38 19.18153 -66.86991 24057 ft 267 kts 302°
2026-05-05 01:38 19.19202 -66.88615 24056 ft 267 kts 302°
2026-05-05 01:39 19.20240 -66.90223 24057 ft 268 kts 302°
2026-05-05 01:39 19.21307 -66.91878 24057 ft 269 kts 302°
2026-05-05 01:39 19.22361 -66.93512 24056 ft 269 kts 302°
2026-05-05 01:39 19.23403 -66.95128 24058 ft 270 kts 302°
2026-05-05 01:40 19.24474 -66.96789 24058 ft 270 kts 302°
2026-05-05 01:40 19.25517 -66.98408 24057 ft 269 kts 302°
2026-05-05 01:40 19.26571 -67.00043 24057 ft 269 kts 302°
2026-05-05 01:40 19.27626 -67.01680 24058 ft 269 kts 302°
2026-05-05 01:41 19.28676 -67.03312 24057 ft 269 kts 302°
2026-05-05 01:41 19.29727 -67.04944 24057 ft 269 kts 302°
2026-05-05 01:41 19.30781 -67.06582 24057 ft 269 kts 302°
2026-05-05 01:41 19.31833 -67.08217 24057 ft 269 kts 302°
2026-05-05 01:42 19.32884 -67.09851 24057 ft 268 kts 302°
2026-05-05 01:42 19.33935 -67.11486 24057 ft 268 kts 302°
2026-05-05 01:42 19.34629 -67.12566 24057 ft 268 kts 302°
2026-05-05 01:42 19.36032 -67.14747 24057 ft 268 kts 302°
2026-05-05 01:43 19.36727 -67.15829 24056 ft 268 kts 302°
2026-05-05 01:43 19.37774 -67.17460 24057 ft 268 kts 302°
2026-05-05 01:43 19.38823 -67.19092 24057 ft 268 kts 302°
2026-05-05 01:43 19.39871 -67.20725 24057 ft 268 kts 302°
2026-05-05 01:44 19.41265 -67.22896 24057 ft 269 kts 302°
2026-05-05 01:44 19.41977 -67.24006 24058 ft 269 kts 302°
2026-05-05 01:44 19.43030 -67.25647 24058 ft 270 kts 302°
2026-05-05 01:44 19.44085 -67.27292 24057 ft 270 kts 302°
2026-05-05 01:45 19.45140 -67.28936 24057 ft 269 kts 302°
2026-05-05 01:45 19.46191 -67.30577 24058 ft 269 kts 302°
2026-05-05 01:45 19.47244 -67.32219 24058 ft 269 kts 302°
2026-05-05 01:45 19.48296 -67.33861 24058 ft 269 kts 302°
2026-05-05 01:46 19.49350 -67.35506 24058 ft 269 kts 301°
2026-05-05 01:46 19.50388 -67.37127 24058 ft 269 kts 301°
2026-05-05 01:46 19.51442 -67.38773 24059 ft 270 kts 301°
2026-05-05 01:46 19.52495 -67.40418 24059 ft 270 kts 301°
2026-05-05 01:47 19.53547 -67.42063 24058 ft 270 kts 301°
2026-05-05 01:47 19.54601 -67.43710 24059 ft 270 kts 301°
2026-05-05 01:47 19.55654 -67.45356 24058 ft 269 kts 301°
2026-05-05 01:47 19.56703 -67.46998 24059 ft 270 kts 301°
2026-05-05 01:48 19.57755 -67.48644 24059 ft 270 kts 301°
2026-05-05 01:48 19.58811 -67.50296 24059 ft 270 kts 301°
2026-05-05 01:48 19.59863 -67.51942 24059 ft 270 kts 301°
2026-05-05 01:48 19.60913 -67.53588 24059 ft 270 kts 301°
2026-05-05 01:49 19.61965 -67.55235 24059 ft 269 kts 301°
2026-05-05 01:49 19.63017 -67.56882 24059 ft 269 kts 301°
2026-05-05 01:49 19.64066 -67.58528 24059 ft 269 kts 301°
2026-05-05 01:49 19.65117 -67.60175 24059 ft 269 kts 301°
2026-05-05 01:50 19.66166 -67.61819 24059 ft 269 kts 301°
2026-05-05 01:50 19.67214 -67.63462 24059 ft 269 kts 301°
2026-05-05 01:50 19.68261 -67.65105 24059 ft 269 kts 301°
2026-05-05 01:50 19.69295 -67.66727 24059 ft 268 kts 301°
2026-05-05 01:51 19.70341 -67.68369 24057 ft 268 kts 301°
2026-05-05 01:51 19.71385 -67.70008 24059 ft 268 kts 301°
2026-05-05 01:51 19.72429 -67.71648 24059 ft 268 kts 301°
2026-05-05 01:51 19.73473 -67.73287 24059 ft 268 kts 301°
2026-05-05 01:52 19.74513 -67.74921 24058 ft 267 kts 301°
2026-05-05 01:52 19.75553 -67.76558 24058 ft 267 kts 301°
2026-05-05 01:52 19.76593 -67.78192 24058 ft 267 kts 301°
2026-05-05 01:52 19.77634 -67.79828 24057 ft 267 kts 301°
2026-05-05 01:53 19.78672 -67.81463 24057 ft 267 kts 301°
2026-05-05 01:53 19.79713 -67.83100 24058 ft 267 kts 301°
2026-05-05 01:53 19.80750 -67.84733 24057 ft 267 kts 301°
2026-05-05 01:53 19.81790 -67.86370 24057 ft 267 kts 301°
2026-05-05 01:54 19.82827 -67.88003 24058 ft 267 kts 301°
2026-05-05 01:54 19.83850 -67.89615 24058 ft 267 kts 301°
2026-05-05 01:54 19.84888 -67.91249 24057 ft 267 kts 301°
2026-05-05 01:54 19.85925 -67.92884 24058 ft 267 kts 301°
2026-05-05 01:55 19.86960 -67.94517 24057 ft 266 kts 301°
2026-05-05 01:55 19.87994 -67.96146 24058 ft 266 kts 301°
2026-05-05 01:55 19.89030 -67.97780 24058 ft 266 kts 301°
2026-05-05 01:55 19.90063 -67.99411 24058 ft 266 kts 301°
2026-05-05 01:56 19.91098 -68.01043 24058 ft 266 kts 301°
2026-05-05 01:56 19.92132 -68.02675 24058 ft 266 kts 301°
2026-05-05 01:56 19.93166 -68.04309 24058 ft 266 kts 301°
2026-05-05 01:56 19.94202 -68.05945 24057 ft 267 kts 301°
2026-05-05 01:57 19.95241 -68.07587 24058 ft 268 kts 301°
2026-05-05 01:57 19.96265 -68.09206 24058 ft 268 kts 301°
2026-05-05 01:57 19.97307 -68.10854 24059 ft 269 kts 301°
2026-05-05 01:57 19.98350 -68.12503 24060 ft 269 kts 301°
2026-05-05 01:58 19.99392 -68.14151 24060 ft 269 kts 301°
2026-05-05 01:58 20.00436 -68.15801 24060 ft 269 kts 301°
2026-05-05 01:58 20.01478 -68.17452 24060 ft 268 kts 301°
2026-05-05 01:58 20.02518 -68.19097 24060 ft 268 kts 301°
2026-05-05 01:59 20.03558 -68.20744 24060 ft 268 kts 301°
2026-05-05 01:59 20.04596 -68.22388 24059 ft 267 kts 301°
2026-05-05 01:59 20.05631 -68.24030 24059 ft 268 kts 301°
2026-05-05 01:59 20.06670 -68.25676 24060 ft 268 kts 301°
2026-05-05 02:00 20.07708 -68.27320 24058 ft 268 kts 301°
2026-05-05 02:00 20.08745 -68.28966 24060 ft 267 kts 301°
2026-05-05 02:00 20.09781 -68.30609 24059 ft 267 kts 301°
2026-05-05 02:00 20.10814 -68.32248 24059 ft 267 kts 301°
2026-05-05 02:01 20.11846 -68.33885 24059 ft 267 kts 301°
2026-05-05 02:01 20.12877 -68.35522 24058 ft 266 kts 301°
2026-05-05 02:01 20.13909 -68.37161 24058 ft 266 kts 301°
2026-05-05 02:01 20.14941 -68.38800 24033 ft 267 kts 301°
2026-05-05 02:02 20.15977 -68.40446 24024 ft 267 kts 301°
2026-05-05 02:02 20.17010 -68.42088 24024 ft 267 kts 301°
2026-05-05 02:02 20.18037 -68.43722 24024 ft 266 kts 301°
2026-05-05 02:02 20.19066 -68.45358 24024 ft 265 kts 301°
2026-05-05 02:03 20.20079 -68.46968 24024 ft 265 kts 301°
2026-05-05 02:03 20.21106 -68.48602 24024 ft 265 kts 301°
2026-05-05 02:03 20.22130 -68.50233 24024 ft 265 kts 301°
2026-05-05 02:03 20.23155 -68.51864 24024 ft 265 kts 301°
2026-05-05 02:04 20.24179 -68.53494 24024 ft 264 kts 300°
2026-05-05 02:04 20.25199 -68.55121 24023 ft 264 kts 300°
2026-05-05 02:04 20.26124 -68.56794 24025 ft 262 kts 296°
2026-05-05 02:04 20.27043 -68.58478 24025 ft 264 kts 297°
2026-05-05 02:05 20.27973 -68.60166 24026 ft 265 kts 297°
2026-05-05 02:05 20.28901 -68.61860 24026 ft 265 kts 297°
2026-05-05 02:05 20.29812 -68.63534 24026 ft 265 kts 297°
2026-05-05 02:05 20.30737 -68.65231 24026 ft 265 kts 297°
2026-05-05 02:06 20.31663 -68.66928 24026 ft 265 kts 297°
2026-05-05 02:06 20.32587 -68.68621 24026 ft 264 kts 297°
2026-05-05 02:06 20.33509 -68.70314 24026 ft 264 kts 297°
2026-05-05 02:06 20.34430 -68.72005 24026 ft 264 kts 297°
2026-05-05 02:07 20.35351 -68.73696 24026 ft 264 kts 297°
2026-05-05 02:07 20.36272 -68.75387 24026 ft 263 kts 297°
2026-05-05 02:07 20.37192 -68.77075 24026 ft 263 kts 297°
2026-05-05 02:07 20.38110 -68.78763 24026 ft 263 kts 297°
2026-05-05 02:08 20.39028 -68.80451 24026 ft 262 kts 297°
2026-05-05 02:08 20.39943 -68.82132 24026 ft 262 kts 297°
2026-05-05 02:08 20.40857 -68.83813 24026 ft 262 kts 297°
2026-05-05 02:08 20.41771 -68.85494 24026 ft 262 kts 296°
2026-05-05 02:09 20.42671 -68.87151 24025 ft 261 kts 296°
2026-05-05 02:09 20.43582 -68.88828 24026 ft 261 kts 296°
2026-05-05 02:09 20.44493 -68.90506 24026 ft 262 kts 296°
2026-05-05 02:09 20.45407 -68.92189 24026 ft 262 kts 296°
2026-05-05 02:10 20.46321 -68.93872 24026 ft 262 kts 296°
2026-05-05 02:10 20.47235 -68.95556 24026 ft 263 kts 296°
2026-05-05 02:10 20.48149 -68.97240 24026 ft 262 kts 296°
2026-05-05 02:10 20.49063 -68.98927 24026 ft 262 kts 296°
2026-05-05 02:11 20.49976 -69.00611 24026 ft 262 kts 296°
2026-05-05 02:11 20.50887 -69.02291 24026 ft 262 kts 296°
2026-05-05 02:11 20.51797 -69.03970 24026 ft 261 kts 296°
2026-05-05 02:11 20.52705 -69.05648 24026 ft 261 kts 296°
2026-05-05 02:12 20.53614 -69.07325 24026 ft 261 kts 296°
2026-05-05 02:12 20.55414 -69.10652 24014 ft 260 kts 296°
2026-05-05 02:12 20.56320 -69.12325 24014 ft 260 kts 296°
2026-05-05 02:13 20.57224 -69.13996 24014 ft 260 kts 296°
2026-05-05 02:13 20.58127 -69.15666 24014 ft 260 kts 296°
2026-05-05 02:13 20.59030 -69.17337 24014 ft 260 kts 296°
2026-05-05 02:13 20.59931 -69.19005 24014 ft 259 kts 296°
2026-05-05 02:14 20.60833 -69.20673 24014 ft 259 kts 296°
2026-05-05 02:14 20.61733 -69.22339 24014 ft 259 kts 296°
2026-05-05 02:14 20.62631 -69.24002 24014 ft 258 kts 296°
2026-05-05 02:14 20.63527 -69.25663 24014 ft 258 kts 296°
2026-05-05 02:15 20.64423 -69.27324 24014 ft 258 kts 296°
2026-05-05 02:15 20.65319 -69.28984 24014 ft 258 kts 296°
2026-05-05 02:15 20.66215 -69.30648 24014 ft 258 kts 296°
2026-05-05 02:15 20.67110 -69.32308 24014 ft 258 kts 296°
2026-05-05 02:16 20.68005 -69.33966 24014 ft 258 kts 296°
2026-05-05 02:16 20.68900 -69.35628 24014 ft 258 kts 296°
2026-05-05 02:16 20.69782 -69.37265 24014 ft 257 kts 296°
2026-05-05 02:16 20.70676 -69.38926 24014 ft 257 kts 296°
2026-05-05 02:17 20.71568 -69.40582 24014 ft 257 kts 296°
2026-05-05 02:17 20.72459 -69.42238 24014 ft 257 kts 296°
2026-05-05 02:17 20.73349 -69.43893 24014 ft 257 kts 296°
2026-05-05 02:17 20.74239 -69.45548 24020 ft 257 kts 296°
2026-05-05 02:18 20.75129 -69.47204 24029 ft 257 kts 296°
2026-05-05 02:18 20.76018 -69.48857 24029 ft 257 kts 296°
2026-05-05 02:18 20.76908 -69.50513 24029 ft 256 kts 296°
2026-05-05 02:18 20.77796 -69.52165 24029 ft 256 kts 296°
2026-05-05 02:19 20.78683 -69.53816 24029 ft 256 kts 296°
2026-05-05 02:19 20.79571 -69.55470 24029 ft 256 kts 296°
2026-05-05 02:19 20.80458 -69.57125 24029 ft 257 kts 296°
2026-05-05 02:19 20.81351 -69.58789 24030 ft 258 kts 296°
2026-05-05 02:20 20.82248 -69.60460 24030 ft 259 kts 296°
2026-05-05 02:20 20.83144 -69.62131 24030 ft 259 kts 296°
2026-05-05 02:20 20.84042 -69.63806 24030 ft 259 kts 296°
2026-05-05 02:20 20.84924 -69.65452 24030 ft 259 kts 296°
2026-05-05 02:21 20.85821 -69.67125 24030 ft 259 kts 296°
2026-05-05 02:21 20.86714 -69.68793 24030 ft 258 kts 296°
2026-05-05 02:21 20.87608 -69.70462 24030 ft 258 kts 296°
2026-05-05 02:21 20.88499 -69.72125 24030 ft 258 kts 296°
2026-05-05 02:22 20.89388 -69.73788 24030 ft 258 kts 296°
2026-05-05 02:22 20.90280 -69.75454 24014 ft 258 kts 296°
2026-05-05 02:22 20.91106 -69.77140 24015 ft 254 kts 291°
2026-05-05 02:22 20.91853 -69.78857 24016 ft 255 kts 292°
2026-05-05 02:23 20.92612 -69.80579 23895 ft 259 kts 292°
2026-05-05 02:23 20.93397 -69.82359 23547 ft 270 kts 292°
2026-05-05 02:23 20.94207 -69.84198 23198 ft 276 kts 292°
2026-05-05 02:23 20.95019 -69.86045 22855 ft 280 kts 292°
2026-05-05 02:24 20.95848 -69.87930 22504 ft 279 kts 292°
2026-05-05 02:24 20.96672 -69.89802 22153 ft 277 kts 292°
2026-05-05 02:24 20.97489 -69.91661 21803 ft 275 kts 292°
2026-05-05 02:24 20.98298 -69.93509 21453 ft 273 kts 292°
2026-05-05 02:25 20.99102 -69.95341 21103 ft 271 kts 292°
2026-05-05 02:25 20.99902 -69.97165 20753 ft 270 kts 292°
2026-05-05 02:25 21.00697 -69.98978 20403 ft 268 kts 292°
2026-05-05 02:25 21.01486 -70.00779 20053 ft 267 kts 292°
2026-05-05 02:26 21.02272 -70.02573 19702 ft 265 kts 292°
2026-05-05 02:26 21.03053 -70.04355 19352 ft 264 kts 292°
2026-05-05 02:26 21.03830 -70.06129 19002 ft 263 kts 292°
2026-05-05 02:26 21.04605 -70.07900 18698 ft 261 kts 292°
2026-05-05 02:27 21.05368 -70.09646 18479 ft 257 kts 293°
2026-05-05 02:27 21.06125 -70.11376 18247 ft 255 kts 292°
2026-05-05 02:27 21.06874 -70.13091 18012 ft 253 kts 293°
2026-05-05 02:27 21.07619 -70.14795 17796 ft 252 kts 293°
2026-05-05 02:28 21.08361 -70.16493 17571 ft 251 kts 292°
2026-05-05 02:28 21.09103 -70.18190 17345 ft 251 kts 293°
2026-05-05 02:28 21.09832 -70.19861 17123 ft 251 kts 293°
2026-05-05 02:28 21.10503 -70.21575 16897 ft 249 kts 289°
2026-05-05 02:29 21.11136 -70.23302 16673 ft 249 kts 290°
2026-05-05 02:29 21.11780 -70.25028 16446 ft 250 kts 290°
2026-05-05 02:29 21.12421 -70.26759 16222 ft 250 kts 289°
2026-05-05 02:29 21.13057 -70.28490 15996 ft 250 kts 290°
2026-05-05 02:30 21.13694 -70.30224 15773 ft 250 kts 289°
2026-05-05 02:30 21.14332 -70.31955 15542 ft 250 kts 290°
2026-05-05 02:30 21.14969 -70.33684 15325 ft 250 kts 290°
2026-05-05 02:30 21.15596 -70.35389 15099 ft 250 kts 289°
2026-05-05 02:31 21.16231 -70.37118 14873 ft 249 kts 290°
2026-05-05 02:31 21.16868 -70.38849 14648 ft 250 kts 290°
2026-05-05 02:31 21.17504 -70.40579 14423 ft 250 kts 290°
2026-05-05 02:31 21.18140 -70.42310 14198 ft 250 kts 290°
2026-05-05 02:32 21.18774 -70.44038 13972 ft 249 kts 290°
2026-05-05 02:32 21.19410 -70.45770 13747 ft 249 kts 290°
2026-05-05 02:32 21.20043 -70.47496 13523 ft 249 kts 290°
2026-05-05 02:32 21.20677 -70.49223 13293 ft 249 kts 290°
2026-05-05 02:33 21.21308 -70.50946 13080 ft 248 kts 290°
2026-05-05 02:33 21.21938 -70.52663 12883 ft 247 kts 290°
2026-05-05 02:33 21.22566 -70.54378 12683 ft 247 kts 290°
2026-05-05 02:33 21.23191 -70.56083 12484 ft 246 kts 290°
2026-05-05 02:34 21.23604 -70.57213 12349 ft 245 kts 290°
2026-05-05 02:34 21.24227 -70.58915 12149 ft 245 kts 290°
2026-05-05 02:34 21.24847 -70.60612 11948 ft 245 kts 290°
2026-05-05 02:34 21.25472 -70.62320 11665 ft 247 kts 290°
2026-05-05 02:35 21.26104 -70.64047 11333 ft 251 kts 290°
2026-05-05 02:35 21.26745 -70.65802 10986 ft 254 kts 290°
2026-05-05 02:35 21.27392 -70.67572 10626 ft 256 kts 290°
2026-05-05 02:35 21.28044 -70.69356 10277 ft 257 kts 289°
2026-05-05 02:36 21.28694 -70.71136 9923 ft 256 kts 289°
2026-05-05 02:36 21.29341 -70.72911 9573 ft 256 kts 289°
2026-05-05 02:36 21.29991 -70.74690 9225 ft 255 kts 289°
2026-05-05 02:36 21.30635 -70.76456 8872 ft 253 kts 289°
2026-05-05 02:37 21.31272 -70.78202 8523 ft 250 kts 289°
2026-05-05 02:37 21.31902 -70.79930 8173 ft 247 kts 289°
2026-05-05 02:37 21.32524 -70.81637 7821 ft 245 kts 289°
2026-05-05 02:37 21.33141 -70.83332 7473 ft 243 kts 289°
2026-05-05 02:38 21.33753 -70.85015 7123 ft 241 kts 289°
2026-05-05 02:38 21.34360 -70.86685 6772 ft 240 kts 289°
2026-05-05 02:38 21.34966 -70.88348 6445 ft 239 kts 289°
2026-05-05 02:38 21.35569 -70.90003 6120 ft 238 kts 289°
2026-05-05 02:39 21.36166 -70.91649 5795 ft 236 kts 289°
2026-05-05 02:39 21.36761 -70.93289 5470 ft 236 kts 289°
2026-05-05 02:39 21.37356 -70.94925 5144 ft 235 kts 289°
2026-05-05 02:39 21.37936 -70.96563 4823 ft 234 kts 287°
2026-05-05 02:40 21.38422 -70.98226 4498 ft 233 kts 284°
2026-05-05 02:40 21.38889 -70.99868 4169 ft 228 kts 285°
2026-05-05 02:40 21.39368 -71.01459 3846 ft 225 kts 286°
2026-05-05 02:40 21.39854 -71.03048 3522 ft 223 kts 286°
2026-05-05 02:41 21.40329 -71.04605 3195 ft 216 kts 286°
2026-05-05 02:41 21.40780 -71.06094 2867 ft 203 kts 286°
2026-05-05 02:41 21.41201 -71.07484 2532 ft 188 kts 286°
2026-05-05 02:41 21.41595 -71.08784 2209 ft 179 kts 286°
2026-05-05 02:42 21.41967 -71.10024 2005 ft 167 kts 286°
2026-05-05 02:42 21.42309 -71.11165 2001 ft 158 kts 286°
2026-05-05 02:42 21.42646 -71.12290 2002 ft 159 kts 285°
2026-05-05 02:42 21.42984 -71.13420 2008 ft 158 kts 286°
2026-05-05 02:43 21.43315 -71.14518 2008 ft 152 kts 286°
2026-05-05 02:43 21.43636 -71.15579 2004 ft 147 kts 286°
2026-05-05 02:43 21.43945 -71.16608 2003 ft 143 kts 286°
2026-05-05 02:43 21.44248 -71.17615 2002 ft 141 kts 286°
2026-05-05 02:44 21.44518 -71.18614 2001 ft 138 kts 279°
2026-05-05 02:44 21.44697 -71.19616 2000 ft 136 kts 278°
2026-05-05 02:44 21.45145 -71.20461 1990 ft 137 kts 326°
2026-05-05 02:44 21.46044 -71.20577 1992 ft 133 kts 24°
2026-05-05 02:45 21.46589 -71.19881 1990 ft 121 kts 84°
2026-05-05 02:45 21.46413 -71.19054 1948 ft 113 kts 115°
2026-05-05 02:45 21.46015 -71.18350 1534 ft 111 kts 128°
2026-05-05 02:45 21.45556 -71.17719 1081 ft 100 kts 124°
2026-05-05 02:46 21.45215 -71.17081 608 ft 98 kts 112°
2026-05-05 02:46 21.44981 -71.16411 284 ft 89 kts 105°
2026-05-05 02:46 21.44836 -71.15810 201 ft 81 kts 101°
2026-05-05 02:46 21.44694 -71.15222 96 ft 83 kts 100°
2026-05-05 02:47 21.44562 -71.14636 15 ft 71 kts 107°
2026-05-05 02:47 21.44494 -71.14370 15 ft 21 kts 104°
2026-05-05 02:47 21.44448 -71.14155 14 ft 38 kts 110°
2026-05-05 02:47 21.44375 -71.13863 15 ft 40 kts 103°
2026-05-05 02:48 21.44332 -71.13656 17 ft 0 kts 102°
2026-05-05 02:48 21.44322 -71.13653 17 ft 6 kts 210°
2026-05-05 02:48 21.44333 -71.13747 16 ft 19 kts 284°
2026-05-05 02:48 21.44377 -71.13917 14 ft 27 kts 283°
2026-05-05 02:49 21.44430 -71.14131 15 ft 32 kts 284°
2026-05-05 02:49 21.44487 -71.14371 15 ft 35 kts 287°
2026-05-05 02:49 21.44441 -71.14538 15 ft 27 kts 192°
2026-05-05 02:49 21.44278 -71.14600 15 ft 4 kts 188°
2026-05-05 02:50 21.44277 -71.14600 15 ft 0 kts 188°